TimeCDT,TemperatureF,Dew PointF,Humidity,Sea Level PressureIn,VisibilityMPH,Wind Direction,Wind SpeedMPH,Gust SpeedMPH,PrecipitationIn,Events,Conditions,WindDirDegrees,DateUTC
12:56 AM,24.1,19.0,81,29.82,10.0,East,4.6,-,N/A,,Clear,80,2014-03-18 05:56:00
1:56 AM,24.1,20.1,85,29.83,10.0,Calm,Calm,-,N/A,,Clear,0,2014-03-18 06:56:00
2:56 AM,25.2,20.1,81,29.83,10.0,Calm,Calm,-,N/A,,Clear,0,2014-03-18 07:56:00
3:56 AM,24.1,20.1,85,29.81,9.0,Calm,Calm,-,N/A,,Clear,0,2014-03-18 08:56:00
4:56 AM,24.1,21.0,88,29.81,8.0,East,3.5,-,N/A,,Clear,90,2014-03-18 09:56:00
5:56 AM,19.0,18.1,96,29.83,5.0,Calm,Calm,-,N/A,,Clear,0,2014-03-18 10:56:00
6:56 AM,20.1,19.0,96,29.81,5.0,Calm,Calm,-,N/A,,Clear,0,2014-03-18 11:56:00
7:56 AM,26.1,23.0,88,29.82,5.0,ESE,5.8,-,N/A,,Clear,120,2014-03-18 12:56:00
8:56 AM,31.1,25.2,79,29.83,6.0,SE,8.1,-,N/A,,Haze,140,2014-03-18 13:56:00
9:56 AM,34.9,27.1,73,29.83,9.0,SSE,11.5,-,N/A,,Mostly Cloudy,150,2014-03-18 14:56:00
10:56 AM,36.9,28.0,70,29.84,10.0,SE,10.4,-,N/A,,Partly Cloudy,140,2014-03-18 15:56:00
11:56 AM,39.9,28.0,63,29.84,10.0,SE,8.1,-,N/A,,Mostly Cloudy,130,2014-03-18 16:56:00
12:56 PM,39.2,28.4,65,29.82,10.0,East,8.1,-,N/A,,Overcast,100,2014-03-18 17:56:00
1:56 PM,41.9,29.1,61,29.83,10.0,ESE,10.4,-,N/A,,Mostly Cloudy,120,2014-03-18 18:56:00
2:56 PM,43.0,29.1,58,29.82,10.0,ESE,8.1,-,N/A,,Clear,120,2014-03-18 19:56:00
3:56 PM,43.0,29.1,58,29.81,10.0,ESE,6.9,-,N/A,,Clear,110,2014-03-18 20:56:00
4:56 PM,41.0,32.0,70,29.79,10.0,East,9.2,-,N/A,,Clear,80,2014-03-18 21:56:00
5:56 PM,37.9,31.1,76,29.75,10.0,ENE,15.0,-,N/A,,Clear,70,2014-03-18 22:56:00
6:56 PM,37.9,31.1,76,29.79,10.0,East,8.1,-,N/A,,Overcast,90,2014-03-18 23:56:00
7:56 PM,36.0,30.0,79,29.81,10.0,ENE,9.2,-,N/A,,Overcast,60,2014-03-19 00:56:00
8:56 PM,34.9,30.0,82,29.81,9.0,NE,6.9,-,N/A,,Mostly Cloudy,50,2014-03-19 01:56:00
9:56 PM,34.9,30.0,82,29.81,10.0,NE,8.1,-,N/A,,Overcast,50,2014-03-19 02:56:00
10:56 PM,34.9,30.0,82,29.78,9.0,NE,11.5,-,N/A,,Overcast,40,2014-03-19 03:56:00
11:56 PM,34.0,29.1,82,29.75,8.0,NE,11.5,-,0.00,Rain,Light Rain,40,2014-03-19 04:56:00